Location: Czekanka
(50.4925°N, 19.2643°E)
Time: 06:51:23
(UTC+00:00)

Cosmos 2263 Rocket - Pass Details

Date: 28 September 2024
Orbit: 821 x 849 km, 71.0° (Epoch: 12 October)

Event Time Altitude Azimuth Distance (km) Brightness Sun altitude
Exits shadow 01:54:17 26° 161° (SSE) 1,602 3.5 -25.9°
Maximum altitude 01:56:55 42° 109° (ESE) 1,192 3.2 -25.5°
Drops below altitude 10° 02:02:13 10° 40° (NE) 2,477 5.6 -24.8°
Sets 02:04:47 0° 34° (NE) 3,420 6.4 -24.4°
